Content
SEND FEEDBACK

Daily
Averages
Monthly
Summary
United States of America

EVADALE, TEXAS


Home > North America > United States > Texas
Elevation: 4 feet     Latitude: 30 20N     Longitude: 094 05W

WEATHER
 
SELECT A DAY
Number of Records: 69,738;   Date Range: 3/9/11 - 8/20/14
 
SHARE

PRINT THIS DATA

[ ← Previous Day ]
WEATHER ALMANAC - NOVEMBER 21, 2013
[ Next Day → ]
[ °C ]   °F
Weather ElementAverageHighLow
Temperature70.5 °F78.6 °F (1:15 pm)65.1 °F (1:55 am)
Dewpoint68.4 °F73.4 °F (5:15 pm)65.1 °F (1:55 am)
Humidity93.8 %100 % (12:35 am)68 % (1:15 pm)
Barometer30.06 in30.12 in (9:55 pm)30.01 in (12:55 am)
Wind Speed8 mph16.1 mph (11:35 am)
Wind Gust23 mph (12:35 pm)
Weather ElementAverage
Visibility7.7 mi
Wind DirectionESE (115.9 °)

Weather ElementTotal
Precipitation---
Cooling Degree Days6.8 (Base 65)
Growing Degree Days21.9 (Base 50)
Averaged from 71 records on November 21, 2013
WEATHER CONDITIONS BREAKOUT
WIND DIRECTION BREAKOUT
WEATHER BY HOUR - NOVEMBER 21, 2013
[ °C ]   °F
Local TimeTemperatureDewpointHumidityBarometerVisibilityWind DirectionWind SpeedGust SpeedPrecipitationEventsConditions
12:35 AM65.7 °F65.7 °F100 %30.02 in10.0 miESE (110°)8.1 mphMostly Cloudy
12:55 AM66.0 °F66.0 °F100 %30.01 in10.0 miESE (110°)6.9 mphMostly Cloudy
1:15 AM65.5 °F65.5 °F100 %30.02 in10.0 miESE (110°)6.9 mphScattered Clouds
1:35 AM65.3 °F65.3 °F100 %30.02 in10.0 miESE (110°)9.2 mphScattered Clouds
1:55 AM65.1 °F65.1 °F100 %30.02 in10.0 miESE (110°)8.1 mphMostly Cloudy
2:15 AM65.5 °F65.5 °F100 %30.02 in10.0 miESE (120°)10.4 mphOvercast
2:35 AM65.7 °F65.7 °F100 %30.02 in10.0 miESE (110°)8.1 mphOvercast
2:55 AM65.5 °F65.5 °F100 %30.02 in10.0 miESE (110°)8.1 mphOvercast
3:15 AM65.7 °F65.7 °F100 %30.02 in10.0 miEast (100°)6.9 mphOvercast
3:35 AM66.2 °F66.2 °F100 %30.02 in10.0 miESE (110°)6.9 mphOvercast
3:55 AM66.2 °F66.2 °F100 %30.02 in10.0 miESE (110°)8.1 mphOvercast
4:15 AM66.4 °F66.4 °F100 %30.02 in10.0 miESE (120°)9.2 mphOvercast
4:35 AM66.4 °F66.4 °F100 %30.03 in10.0 miESE (110°)6.9 mphOvercast
4:55 AM66.2 °F66.2 °F100 %30.02 in10.0 miEast (100°)8.1 mphOvercast
5:15 AM65.8 °F65.8 °F100 %30.03 in7.0 miEast (100°)5.8 mphOvercast
5:35 AM65.8 °F65.8 °F100 %30.04 in7.0 miEast (100°)5.8 mphOvercast
5:55 AM65.5 °F65.5 °F100 %30.04 in7.0 miEast (90°)4.6 mphOvercast
6:15 AM65.3 °F65.3 °F100 %30.04 in7.0 miEast (100°)5.8 mphOvercast
6:35 AM65.3 °F65.3 °F100 %30.05 in7.0 miEast (100°)6.9 mphOvercast
6:55 AM65.3 °F65.3 °F100 %30.05 in5.0 miEast (100°)5.8 mphOvercast
7:15 AM65.5 °F65.5 °F100 %30.06 in5.0 miESE (110°)6.9 mphOvercast
7:35 AM65.7 °F65.7 °F100 %30.06 in7.0 miESE (120°)11.5 mphOvercast
7:55 AM66.2 °F66.2 °F100 %30.07 in7.0 miEast (100°)6.9 mphOvercast
8:15 AM66.6 °F66.6 °F100 %30.08 in10.0 miESE (110°)4.6 mphOvercast
8:35 AM67.5 °F67.5 °F100 %30.08 in10.0 miEast (100°)5.8 mphOvercast
8:55 AM68.4 °F68.2 °F99 %30.08 in10.0 miEast (80°)5.8 mphOvercast
9:15 AM68.0 °F68.0 °F100 %30.09 in10.0 miESE (110°)5.8 mphOvercast
9:35 AM70.7 °F70.3 °F99 %30.09 in10.0 miESE (110°)9.2 mphScattered Clouds
9:55 AM73.4 °F70.5 °F91 %30.09 in10.0 miSE (140°)11.5 mphMostly Cloudy
10:15 AM75.2 °F69.4 °F82 %30.10 in10.0 miSE (130°)10.4 mphOvercast
10:35 AM76.1 °F69.4 °F80 %30.10 in10.0 miSE (140°)10.4 mph17.3 mphOvercast
10:55 AM75.4 °F70.0 °F83 %30.09 in10.0 miSE (130°)9.2 mphOvercast
11:15 AM75.7 °F68.9 °F79 %30.09 in10.0 miSE (130°)12.7 mph18.4 mphOvercast
11:35 AM77.7 °F68.4 °F73 %30.08 in10.0 miSE (130°)16.1 mph21.9 mphOvercast
11:55 AM77.2 °F68.4 °F74 %30.07 in10.0 miSE (140°)13.8 mph21.9 mphOvercast
12:15 PM77.2 °F68.4 °F74 %30.06 in10.0 miESE (120°)12.7 mph18.4 mphOvercast
12:35 PM78.1 °F68.2 °F71 %30.06 in10.0 miSE (140°)12.7 mph23.0 mphOvercast
12:55 PM78.4 °F67.8 °F70 %30.05 in10.0 miSE (140°)15.0 mph21.9 mphOvercast
1:15 PM78.6 °F67.3 °F68 %30.05 in10.0 miSE (130°)9.2 mph18.4 mphOvercast
1:35 PM77.2 °F67.1 °F71 %30.05 in10.0 miSSE (150°)11.5 mph17.3 mphOvercast
1:55 PM76.1 °F67.5 °F74 %30.04 in10.0 miSE (130°)12.7 mph18.4 mphOvercast
2:15 PM75.4 °F67.8 °F77 %30.04 in10.0 miESE (120°)11.5 mphOvercast
2:35 PM75.4 °F68.7 °F80 %30.03 in10.0 miESE (120°)11.5 mphOvercast
2:55 PM75.9 °F68.9 °F79 %30.04 in10.0 miESE (120°)11.5 mphOvercast
3:15 PM75.2 °F72.5 °F91 %30.04 in10.0 miSE (130°)9.2 mphOvercast
3:35 PM74.5 °F69.3 °F84 %30.05 in10.0 miSE (140°)10.4 mphOvercast
3:55 PM74.3 °F69.8 °F86 %30.05 in10.0 miSE (130°)10.4 mphOvercast
4:15 PM73.9 °F70.9 °F90 %30.05 in10.0 miSE (130°)6.9 mphOvercast
4:35 PM73.9 °F70.9 °F90 %30.04 in10.0 miSE (130°)8.1 mphOvercast
4:55 PM73.6 °F71.8 °F94 %30.05 in10.0 miSE (130°)6.9 mphOvercast
5:15 PM73.4 °F73.4 °F100 %30.05 in10.0 miSE (130°)6.9 mph18.4 mphOvercast
5:35 PM73.0 °F73.0 °F100 %30.06 in10.0 miSE (130°)5.8 mphOvercast
5:55 PM72.5 °F72.5 °F100 %30.07 in10.0 miSE (130°)8.1 mphOvercast
6:15 PM72.1 °F72.1 °F100 %30.07 in10.0 miSE (130°)6.9 mphOvercast
6:35 PM71.8 °F71.8 °F100 %30.08 in10.0 miSE (130°)6.9 mphOvercast
6:55 PM71.1 °F71.1 °F100 %30.09 in7.0 miSE (130°)8.1 mphOvercast
7:15 PM70.7 °F70.7 °F100 %30.08 in5.0 miSE (140°)5.8 mphOvercast
7:35 PM70.3 °F70.3 °F100 %30.07 in4.0 miSE (130°)6.9 mphOvercast
7:55 PM70.0 °F70.0 °F100 %30.07 in2.0 miSE (130°)8.1 mphOvercast
8:15 PM69.8 °F69.8 °F100 %30.08 in1.2 miSE (130°)6.9 mphOvercast
8:35 PM69.8 °F69.8 °F100 %30.08 in1.2 miESE (120°)6.9 mphOvercast
8:55 PM69.8 °F69.8 °F100 %30.09 in1.5 miSE (130°)3.5 mphOvercast
9:15 PM69.8 °F69.8 °F100 %30.10 in1.2 miCalmOvercast
9:35 PM69.8 °F69.8 °F100 %30.11 in1.0 miEast (90°)3.5 mphOvercast
9:55 PM69.8 °F69.8 °F100 %30.12 in0.8 miCalmOvercast
10:15 PM69.8 °F69.8 °F100 %30.12 in0.8 miESE (120°)3.5 mphOvercast
10:35 PM69.8 °F69.8 °F100 %30.12 in0.8 miESE (110°)4.6 mphOvercast
10:55 PM69.6 °F69.6 °F100 %30.12 in0.8 miESE (120°)4.6 mphOvercast
11:15 PM69.4 °F69.4 °F100 %30.12 in0.8 miESE (120°)6.9 mphOvercast
11:35 PM69.4 °F69.4 °F100 %30.12 in0.8 miESE (120°)6.9 mphOvercast
11:55 PM69.3 °F69.3 °F100 %30.11 in1.0 miESE (120°)6.9 mphOvercast
Hourly data recorded from KBMT, located miles away from Evadale, Texas







STORIES FROM OUR PARTNERS